RH
58 59 59 55 54 51 49 49 39 29 27 25 20 16 10 8 7 6 6 6 4 4 4 4 4 5 8 12 17 23 30 35 39 43 46 50 53 55 58 61 63 64 59 54 53 51 47 44 41 39 42 47 49 53 58 61 60 57 56 56 53 50 47
64 61 61 58 55 51 49 51 44 31 29 29 26 24 20 16 13 10 8 8 7 6 6 5 4 5 4 5 6 8 11 15 19 23 26 30 34 36 40 43 45 49 50 49 49 49 47 45 43 40 40 44 46 49 53 58 60 58 57 57 56 53 55
71 64 64 60 57 53 50 53 48 36 32 36 36 36 37 34 30 27 22 18 15 12 10 8 7 6 5 5 5 4 4 5 6 7 9 12 15 18 22 26 29 32 35 37 39 40 41 40 38 36 37 41 44 46 49 52 57 59 56 55 56 54 57
76 69 69 65 60 58 55 56 56 44 35 40 45 45 47 49 48 47 45 42 39 35 31 27 23 20 17 13 10 8 7 6 5 5 4 4 5 6 8 10 13 16 19 23 26 28 31 33 33 31 30 33 37 40 44 47 51 56 57 54 54 54 51
85 77 77 74 69 67 65 64 65 56 42 40 46 45 45 50 53 56 57 57 57 55 51 46 42 39 36 30 25 21 18 15 12 10 8 7 6 5 5 4 5 6 7 10 13 17 20 23 26 26 26 27 29 32 36 40 45 51 56 55 53 53 51
98 93 90 87 80 76 76 75 76 72 56 43 44 46 44 47 51 54 58 60 61 62 61 59 56 55 53 49 44 40 37 32 28 24 20 17 14 12 10 8 6 5 4 4 5 7 9 12 16 19 21 23 25 27 28 32 37 43 51 56 54 52 51
100 100 99 99 96 90 89 88 87 85 70 50 42 44 44 47 51 55 59 64 68 73 77 79 79 79 78 74 69 63 59 53 47 42 38 35 30 26 20 16 13 10 8 7 5 4 4 5 8 10 14 18 20 23 26 26 29 33 40 49 55 54 51
103 103 101 100 100 99 101 101 95 88 77 57 42 40 43 47 53 59 65 72 78 84 89 92 92 94 95 93 89 82 74 65 58 54 52 49 45 41 35 29 24 19 15 11 9 7 6 5 5 5 6 10 13 16 20 23 25 27 31 38 46 53 53
100 103 105 105 104 102 103 104 99 90 78 59 42 39 44 50 58 65 73 80 86 89 90 90 91 93 96 97 95 89 79 70 65 61 58 55 53 50 46 40 36 32 25 19 14 12 10 8 7 5 4 4 6 9 12 17 21 22 25 31 36 43 49
92 91 92 96 101 103 102 98 91 82 68 52 43 44 48 55 64 72 79 85 87 88 88 88 90 92 92 91 88 85 81 76 73 68 62 59 57 56 54 51 49 44 37 30 22 16 13 11 10 9 7 5 4 5 6 8 13 17 20 24 29 34 40
84 86 85 83 81 83 84 81 74 65 55 48 47 52 56 63 71 76 80 83 85 87 90 93 95 96 94 89 86 84 81 78 76 71 67 64 62 61 61 60 58 54 47 40 32 25 20 16 13 10 10 9 7 6 6 5 6 9 13 17 21 27 32
59 69 77 83 83 78 73 68 64 59 57 56 57 60 65 71 78 81 83 84 86 89 92 95 98 98 95 92 90 88 82 77 74 72 71 71 70 69 69 68 66 62 57 50 42 36 30 24 20 17 13 11 10 8 7 7 6 6 7 11 14 18 24
45 47 52 60 71 80 83 81 77 71 66 65 66 69 73 77 80 82 84 85 86 89 92 95 97 99 99 96 93 89 83 80 78 76 76 77 78 77 76 75 74 72 69 66 60 55 48 44 40 31 21 16 15 14 12 9 8 7 6 7 9 12 16
51 46 47 47 47 53 63 74 83 87 85 80 75 72 73 76 78 79 80 81 83 86 89 93 95 98 101 102 98 93 87 83 81 80 80 82 83 83 83 83 85 85 84 84 85 81 76 76 73 58 43 35 28 20 16 13 10 9 8 6 6 10 12
70 53 48 52 54 51 48 49 56 68 79 87 89 87 82 78 75 74 73 73 75 78 84 89 92 94 98 101 101 99 93 87 84 85 86 88 90 91 91 92 95 98 99 99 100 98 95 96 96 88 79 74 65 46 24 14 12 10 8 8 7 13 18
81 63 51 52 58 60 59 55 49 47 50 58 69 80 88 90 87 82 77 72 71 73 79 85 88 90 93 95 98 99 96 90 87 87 89 93 96 97 97 98 100 102 103 103 103 103 101 100 100 101 101 100 98 82 49 23 15 11 10 8 8 28 46
69 57 51 55 60 62 63 66 67 62 55 48 46 49 58 70 81 85 85 82 77 75 77 80 82 84 88 94 98 96 94 91 87 88 93 96 100 101 99 99 101 101 100 101 102 101 101 101 99 100 101 100 103 102 81 49 24 14 14 9 11 48 83
72 60 52 51 57 65 68 70 73 74 73 67 59 51 44 44 51 63 72 79 80 78 76 75 75 77 83 93 100 96 93 92 89 89 94 100 103 104 103 101 101 101 100 99 99 98 99 101 101 101 100 98 99 102 97 78 49 29 22 10 13 56 98
70 79 79 66 56 58 66 73 76 77 77 77 75 71 59 44 38 42 51 62 73 77 77 77 79 82 85 92 98 96 94 97 96 94 98 103 104 104 105 104 100 98 98 95 93 94 97 98 95 93 90 87 85 86 88 87 75 54 35 15 12 52 96
49 63 79 82 75 69 67 70 77 81 83 83 85 85 74 51 37 36 39 46 61 75 83 85 88 90 89 91 95 98 99 100 102 103 104 105 105 104 105 103 97 94 93 89 86 88 91 90 85 83 83 80 77 75 73 80 83 69 50 30 15 37 84
52 47 51 60 71 80 83 81 81 85 90 93 92 93 84 59 38 35 38 41 51 69 84 90 92 93 92 91 95 100 102 102 102 104 106 105 105 105 104 100 97 96 91 85 83 84 86 88 85 84 88 86 81 76 70 72 79 76 66 53 30 24 58
64 58 49 44 48 62 80 91 91 86 91 100 101 97 91 74 49 36 37 40 47 63 81 91 95 95 94 95 98 102 105 105 101 100 102 104 104 103 103 101 99 97 91 86 85 84 87 93 95 92 94 96 93 89 81 72 72 73 71 69 54 31 35
64 64 61 53 45 42 55 78 93 90 84 92 99 96 93 89 74 53 41 37 38 48 66 85 98 103 101 99 100 102 106 108 105 101 101 102 102 102 102 102 100 98 97 96 94 94 96 100 102 99 98 101 102 101 98 89 81 76 71 70 68 52 35
55 58 59 58 53 43 38 51 77 91 86 80 84 87 88 92 93 83 68 56 46 42 46 57 74 91 102 105 107 106 106 105 102 100 100 100 101 102 101 101 100 99 102 102 100 103 104 102 102 102 100 101 102 102 103 103 101 97 90 81 75 68 52
50 50 51 51 51 49 41 36 49 75 88 82 73 75 81 87 93 96 93 88 81 73 65 58 57 63 73 83 92 97 101 104 103 103 102 100 100 99 98 100 102 101 102 102 100 102 103 100 99 101 101 100 102 102 102 103 103 103 103 100 93 84 72
50 48 47 44 42 43 43 37 34 50 76 87 77 68 74 83 89 95 98 100 101 99 96 91 84 78 74 72 73 74 77 83 87 92 97 100 101 103 101 101 103 103 101 101 101 100 101 101 101 100 100 100 100 100 101 102 102 102 101 102 104 102 91
45 44 42 38 35 34 35 36 32 32 53 78 85 76 72 77 84 92 98 102 104 104 104 103 101 100 98 96 92 87 83 79 74 73 75 79 83 90 95 98 102 104 103 103 102 101 99 99 99 99 101 103 103 102 101 99 101 104 105 104 105 105 99
37 36 35 32 30 28 27 30 31 29 37 58 78 84 81 80 84 90 95 98 99 100 101 103 102 101 102 103 103 103 102 100 94 86 79 73 68 66 70 75 81 86 91 96 99 101 102 102 101 101 102 102 102 102 103 103 101 102 105 107 104 99 96
58 58 57 53 46 40 36 34 34 32 31 42 62 77 84 86 89 93 95 96 95 95 97 101 103 103 102 101 100 101 102 103 103 101 95 88 81 73 67 64 62 62 66 71 75 79 86 91 97 102 105 104 102 100 101 103 103 103 105 107 106 101 96
89 90 92 89 82 75 71 67 61 52 41 37 48 62 74 81 86 90 94 96 95 96 99 100 99 98 99 100 99 100 100 100 101 102 101 97 93 90 84 78 72 66 63 64 64 62 61 64 71 79 86 92 98 102 104 104 102 101 103 105 106 106 105
94 94 96 98 95 92 93 92 88 78 62 47 44 50 59 66 72 78 84 87 87 89 95 99 98 95 94 97 99 100 100 100 100 100 102 102 101 101 99 97 93 86 80 77 77 73 67 65 65 65 65 67 71 78 85 93 100 103 103 103 102 101 102
97 93 89 89 90 92 93 91 86 80 70 56 46 47 52 55 59 62 66 71 75 80 86 90 92 91 90 93 98 100 99 100 102 101 101 104 105 105 105 105 105 103 99 96 95 93 89 86 86 86 83 79 75 72 69 71 78 87 94 100 103 102 100
104 102 95 90 92 94 92 87 82 79 74 62 50 46 51 54 54 53 54 57 64 72 79 84 87 89 89 91 96 100 101 102 106 105 102 102 103 103 103 104 104 104 105 104 101 100 100 98 98 101 103 100 97 95 92 86 80 76 77 83 90 97 101
101 102 100 97 98 95 87 84 86 87 84 76 62 50 50 54 55 53 51 52 55 61 71 83 89 89 88 90 95 102 104 105 105 104 101 100 101 102 103 104 104 104 105 104 100 98 97 95 93 95 98 100 100 101 101 101 98 93 87 82 80 81 86
97 99 100 100 99 91 80 82 91 94 91 88 80 66 58 57 57 56 54 52 51 53 62 78 91 92 88 88 92 96 99 100 101 101 101 101 103 105 106 106 106 104 103 103 103 103 102 99 95 92 92 94 98 101 101 100 100 101 101 98 93 88 83
99 101 103 105 103 93 80 81 94 99 95 92 90 84 78 72 65 59 53 50 51 53 57 70 88 96 95 91 89 89 91 94 96 95 94 94 97 102 105 107 107 106 103 100 100 103 105 104 103 102 101 98 97 98 101 102 100 98 99 101 101 101 100
Wind_Speed
28 28 29 29 28 26 24 22 21 21 20 21 23 25 28 32 36 40 44 49 55 62 70 77 84 90 96 101 106 109 113 115 116 117 117 118 118 118 119 119 119 119 118 116 115 114 113 113 112 110 108 107 106 104 103 102 100 99 98 98 97 94 93
23 24 26 26 25 23 21 19 18 17 16 15 15 16 18 20 23 27 31 35 40 45 51 58 65 71 77 84 89 94 99 103 106 110 112 114 117 118 118 119 120 120 120 118 116 116 115 115 114 112 110 110 109 108 106 104 102 101 100 100 99 97 94
19 20 22 23 23 21 19 16 15 15 13 11 9 9 9 11 13 16 20 24 27 32 36 41 47 52 58 64 69 75 80 86 91 95 100 104 108 111 114 116 118 120 121 120 118 118 117 117 116 114 111 111 111 110 110 108 105 103 102 101 101 100 96
14 16 18 21 21 19 18 15 14 13 12 10 9 8 8 9 11 13 15 17 19 22 25 28 32 36 41 46 51 57 62 68 73 78 83 88 93 98 102 106 110 114 116 118 119 119 119 120 119 117 114 112 112 111 111 111 109 107 105 103 102 101 100
10 12 15 18 19 18 17 15 13 12 12 11 11 10 9 10 12 13 14 16 17 19 21 23 25 28 31 34 38 42 46 50 55 60 65 70 75 80 86 91 96 101 106 110 113 116 117 119 120 120 118 116 115 113 112 112 111 109 108 106 104 103 102
10 10 12 14 16 16 16 14 12 11 11 12 13 12 11 11 13 14 16 17 18 19 21 22 24 25 27 29 31 33 36 38 42 45 49 53 57 62 68 74 79 85 90 95 101 106 110 113 117 119 119 119 118 117 115 114 113 111 110 109 107 105 104
13 10 9 10 12 13 13 12 11 11 12 14 15 14 13 13 13 15 16 17 18 19 20 22 23 24 25 27 29 31 33 35 36 37 39 41 44 48 53 58 62 68 74 80 86 92 98 103 108 113 115 118 119 119 119 117 115 113 111 110 109 107 106
16 13 10 8 8 9 10 10 11 12 13 15 15 15 13 13 14 15 16 17 18 19 20 21 22 23 25 27 29 32 33 34 35 35 36 37 38 40 43 45 49 54 60 66 72 78 84 90 96 102 107 112 116 117 118 119 118 116 113 111 110 110 108
17 15 12 9 7 6 7 8 9 11 13 14 14 14 13 13 14 15 16 16 18 19 21 22 23 24 26 28 30 32 34 34 34 34 35 36 37 37 38 39 41 44 48 53 59 65 71 77 83 89 95 102 107 111 114 117 118 118 117 115 113 112 111
18 15 13 11 9 7 7 7 9 10 12 12 13 13 13 14 15 16 17 17 19 20 21 22 23 25 26 28 30 32 33 34 34 35 34 35 36 36 36 36 37 38 40 43 48 54 59 65 70 77 83 89 94 100 106 110 114 116 117 118 116 114 112
18 16 14 13 11 9 8 8 8 10 11 12 12 13 14 14 15 16 17 18 18 19 20 21 22 24 26 28 30 31 33 33 34 34 34 34 34 34 34 34 35 35 36 38 40 43 48 53 58 64 70 76 81 87 93 99 104 109 113 116 117 116 114
19 17 15 14 13 12 11 10 10 11 11 12 13 14 14 15 15 16 17 17 18 18 19 20 21 23 25 27 29 30 32 32 32 33 33 33 33 32 32 33 33 33 33 33 34 36 39 42 46 51 57 63 68 73 79 85 92 97 103 109 114 115 114
21 19 17 15 14 13 13 13 13 13 14 14 15 15 15 16 16 17 17 18 18 19 19 20 21 22 24 25 27 30 31 31 31 31 31 31 32 31 31 32 31 31 30 29 30 31 32 34 37 41 46 50 55 60 66 72 78 85 91 98 105 110 112
21 20 19 18 16 14 14 14 14 15 16 17 17 18 18 18 19 19 19 19 20 20 20 21 21 22 23 24 26 29 30 31 30 30 30 30 31 30 30 31 30 30 29 28 28 29 29 30 32 34 37 40 45 50 56 62 68 74 81 88 94 101 107
21 20 19 18 17 17 15 14 14 15 16 17 18 19 20 21 21 21 22 22 22 22 22 22 23 23 23 24 26 28 29 30 29 29 29 29 30 30 30 30 30 30 30 30 30 30 30 31 31 30 31 34 38 43 49 55 61 66 72 80 86 91 97
19 19 19 17 17 16 16 15 14 14 15 16 17 19 20 21 22 23 23 23 24 24 24 24 24 24 24 24 25 27 28 29 29 28 28 28 29 29 29 30 30 31 31 32 32 32 32 32 32 31 31 32 34 38 42 48 53 58 65 72 79 84 87
18 17 17 17 16 16 16 16 15 15 14 14 16 17 19 20 21 22 24 24 25 25 26 26 26 25 24 25 26 27 28 28 28 27 27 27 28 28 29 30 31 32 32 32 32 32 32 32 31 31 31 31 32 33 37 41 44 50 57 66 74 79 79
21 18 17 17 17 16 16 16 15 15 14 14 15 16 18 20 21 21 22 23 24 25 26 27 27 26 25 25 25 27 28 28 27 26 26 26 27 28 28 29 31 32 32 32 32 31 30 30 30 30 30 30 30 31 32 34 38 43 50 60 70 76 77
24 22 20 19 19 18 18 17 16 15 15 15 15 16 17 18 19 20 20 20 22 23 24 24 25 25 24 25 25 26 27 27 27 26 26 27 28 28 27 29 31 32 31 31 31 30 29 28 28 28 28 29 30 30 30 30 33 38 44 52 63 75 79
25 24 22 21 20 19 18 18 18 17 17 16 16 16 17 17 16 17 17 18 19 20 20 21 22 23 23 24 25 25 25 26 26 27 28 28 28 27 28 30 31 31 30 30 29 28 28 27 27 27 27 27 28 28 28 29 31 34 38 43 54 69 80
24 24 24 23 22 21 19 18 18 18 18 17 17 16 17 16 13 13 14 14 15 17 17 18 19 21 22 24 24 24 24 25 25 27 29 29 28 28 29 30 30 29 29 29 28 28 27 27 27 26 25 24 25 25 26 28 29 31 34 38 45 59 74
23 23 24 24 24 23 21 19 18 17 17 17 17 16 16 15 11 8 10 11 12 13 14 15 16 18 20 22 23 24 23 23 24 26 27 28 28 29 30 30 30 29 29 28 27 26 26 26 26 27 26 24 23 23 24 26 28 28 30 33 38 46 62
23 23 24 24 24 24 23 20 18 17 15 15 15 14 13 13 11 7 6 8 10 11 11 12 13 14 17 20 21 23 23 23 23 23 24 26 28 29 30 30 30 30 29 28 26 25 24 25 26 27 27 26 24 24 24 25 26 27 28 30 34 37 47
23 23 23 24 24 25 24 22 19 17 15 13 13 12 11 10 9 8 5 4 5 6 8 9 10 11 13 15 17 19 20 21 21 21 22 24 26 28 29 30 30 29 29 28 27 26 24 24 26 27 28 28 28 27 27 27 27 28 28 29 32 34 38
24 23 23 24 24 25 24 23 20 17 15 13 11 10 8 7 7 6 6 4 3 2 3 4 6 7 9 10 12 14 15 17 18 19 20 22 24 26 27 28 29 29 29 29 28 27 26 26 27 28 29 29 29 29 29 30 29 29 30 30 31 33 36
27 26 25 25 25 24 24 23 21 18 15 13 11 9 7 6 5 5 5 5 4 3 2 2 3 4 5 6 8 10 11 14 15 17 19 21 23 25 26 27 28 28 28 28 27 27 28 28 29 31 30 29 29 30 30 31 31 31 32 32 32 32 34
31 30 28 28 27 25 25 24 22 18 15 13 11 9 7 6 5 4 4 5 5 4 4 3 3 4 4 5 6 8 9 11 13 15 17 19 21 24 25 26 27 27 27 27 28 28 29 31 32 33 32 31 31 31 32 32 32 33 33 33 34 34 34
33 32 30 28 27 26 25 24 22 19 16 13 12 10 9 8 7 6 6 5 6 5 5 5 5 5 5 6 7 8 9 11 12 13 15 16 18 20 22 23 25 26 26 27 28 29 31 32 33 32 32 33 33 33 34 34 34 34 34 34 35 35 35
29 29 27 26 24 24 24 23 22 20 16 14 12 11 11 10 9 8 8 7 7 7 7 7 7 7 7 7 8 9 10 11 12 13 14 16 17 18 19 21 22 23 24 25 27 28 30 31 31 31 32 34 34 34 35 35 35 35 36 36 36 36 36
24 24 24 23 22 21 21 21 21 20 17 15 14 13 12 11 11 10 10 10 10 9 9 9 9 9 9 8 9 10 11 12 12 13 14 15 17 18 19 20 21 21 21 22 23 25 25 26 27 29 31 32 33 34 35 35 35 36 37 37 37 37 37
23 23 23 22 21 21 20 19 18 18 17 16 15 15 14 13 13 12 12 13 12 12 11 11 11 11 10 9 9 10 11 11 12 13 13 14 15 16 18 20 21 22 23 23 23 24 23 22 23 25 26 27 29 31 33 34 34 36 37 37 37 37 38
24 23 23 22 21 20 19 17 16 16 16 15 16 16 16 15 14 13 14 14 14 14 14 13 12 12 11 10 10 11 11 10 10 11 12 13 13 14 16 17 19 21 22 23 24 25 25 24 24 24 24 25 25 26 27 29 31 33 35 37 37 37 38
24 24 24 23 22 20 18 16 14 13 14 14 15 17 17 16 15 14 14 14 15 15 15 14 13 13 11 10 10 11 10 10 9 10 10 11 12 13 14 15 17 19 21 22 23 23 24 25 25 25 26 27 27 26 26 26 28 30 31 33 35 36 37
22 23 23 22 22 20 17 15 13 13 14 14 14 16 17 17 16 15 15 15 14 13 14 14 14 13 12 11 11 11 11 10 10 10 10 10 11 12 13 14 16 17 19 21 21 22 23 24 24 24 25 26 27 27 28 28 28 29 29 30 32 33 34
23 23 23 22 21 20 17 14 13 14 14 14 14 15 17 18 18 17 16 16 14 13 12 13 14 14 13 12 12 12 12 12 11 11 11 10 10 11 12 14 15 15 17 19 20 21 22 24 24 23 23 23 24 25 27 29 30 30 30 31 31 31 32
25 24 24 23 22 20 17 14 14 14 15 14 15 16 17 18 18 18 18 18 16 14 13 13 14 14 14 14 14 13 13 13 12 12 11 11 11 11 11 12 13 14 15 16 18 19 21 22 23 24 24 23 23 24 25 27 29 31 32 32 32 32 32
Wind_Direction
265 259 258 259 263 267 271 273 274 274 272 269 264 257 252 248 245 244 242 241 240 240 240 240 240 240 240 241 241 242 243 244 245 246 247 247 248 248 248 249 249 250 250 249 248 248 246 245 243 242 241 242 243 242 242 242 242 242 243 243 243 244 244
266 258 256 257 260 265 269 271 272 272 270 269 265 259 253 247 243 240 237 236 235 235 236 236 237 238 239 240 241 242 242 243 244 244 245 246 246 247 247 248 248 249 249 249 249 249 248 247 245 243 242 242 242 242 241 240 240 241 241 241 242 242 242
269 258 254 255 258 262 265 266 268 267 265 263 260 251 240 233 228 226 226 226 227 229 230 232 233 235 237 238 239 240 241 242 243 244 244 245 245 246 246 246 247 247 248 247 247 248 248 248 247 245 243 242 242 241 241 240 239 239 239 240 241 241 240
276 261 255 255 257 260 263 262 263 261 256 251 248 240 229 223 219 216 215 216 218 221 224 226 227 230 232 234 236 238 239 241 242 243 243 244 244 245 245 246 246 246 246 246 245 245 246 246 247 246 244 243 242 241 240 240 239 238 238 238 239 240 240
297 273 262 259 258 260 263 264 261 257 250 243 243 242 235 228 225 222 221 220 219 221 222 224 225 227 230 232 235 237 239 240 241 242 243 243 244 245 245 245 245 246 246 245 245 244 244 244 244 244 244 243 243 242 240 239 239 238 237 237 237 238 239
328 300 281 271 265 264 265 266 263 255 245 238 238 240 238 231 227 225 226 226 226 227 228 229 231 232 235 237 238 239 240 241 242 243 244 244 244 245 245 245 245 245 245 245 245 244 243 243 243 243 242 242 242 241 241 239 238 237 237 237 237 236 237
355 335 310 290 277 270 268 267 260 250 240 235 234 237 239 236 231 227 226 226 226 226 228 230 232 235 237 239 240 241 242 243 243 244 245 245 245 245 245 245 245 245 245 244 244 243 243 243 243 242 241 241 240 240 240 239 238 237 236 236 236 236 236
6 359 346 325 300 281 270 264 255 245 239 237 237 239 241 240 234 229 226 225 224 223 225 227 229 232 235 237 240 242 243 245 245 245 245 246 247 247 247 246 246 246 245 244 244 243 242 242 242 242 241 240 240 239 239 239 238 238 237 236 236 236 236
5 3 358 349 332 306 281 266 256 248 244 242 241 241 242 239 235 231 228 226 225 225 226 228 230 232 235 238 240 243 246 247 248 248 247 247 248 249 249 249 248 248 247 245 244 243 242 242 242 241 240 239 239 239 238 238 238 237 236 235 235 235 235
0 358 355 350 341 324 300 279 264 255 251 248 246 244 242 239 235 232 230 229 229 231 232 233 235 236 239 241 244 246 249 250 250 250 249 249 250 250 251 252 252 251 250 247 245 244 243 242 242 241 241 240 239 238 238 237 237 236 236 235 235 234 234
355 352 349 344 337 325 308 290 275 263 256 253 251 249 247 244 241 238 236 235 236 236 237 238 239 241 242 245 247 248 250 251 251 251 250 249 250 251 252 253 253 253 252 250 248 246 245 243 243 242 242 240 239 239 238 237 236 235 235 235 234 233 233
359 353 346 339 331 322 311 298 285 274 266 261 257 255 252 250 247 245 243 243 242 242 243 245 246 247 248 248 249 250 251 252 252 251 251 251 251 251 251 253 254 255 254 253 251 249 247 246 245 244 244 242 240 239 238 237 236 235 234 234 234 233 232
4 0 354 346 334 322 312 302 293 285 278 273 268 264 260 257 254 251 249 248 248 248 249 250 252 253 253 252 251 251 252 252 252 252 251 251 251 252 252 253 254 256 256 255 254 253 251 250 248 246 245 244 242 240 238 237 235 234 233 232 232 232 231
360 1 1 357 348 336 321 306 296 288 282 278 274 271 267 264 262 258 256 254 252 252 252 254 255 256 256 255 253 253 253 253 252 252 251 251 251 252 252 253 254 256 256 255 256 256 254 253 252 249 247 245 244 241 238 236 233 232 231 230 230 231 231
351 353 358 358 354 349 340 324 308 294 285 280 276 273 270 268 266 263 261 259 257 256 255 256 257 257 256 256 254 253 253 253 252 251 250 250 250 251 251 252 252 252 252 252 253 254 254 253 253 252 249 247 247 244 240 237 234 231 229 228 227 228 229
347 346 350 353 351 350 349 343 332 316 300 289 281 275 271 269 267 264 263 261 260 259 258 258 258 258 257 256 254 253 253 252 251 250 249 249 249 249 249 249 248 247 248 249 249 250 252 253 253 252 249 247 247 248 245 241 237 232 229 227 225 224 226
352 344 345 347 346 346 347 346 343 336 324 309 295 284 275 269 266 264 263 262 260 260 259 259 259 258 256 254 252 252 252 252 250 248 248 247 247 247 246 245 244 245 245 246 247 247 247 248 249 249 249 248 247 248 249 246 241 235 230 227 224 221 222
359 351 345 343 342 341 343 343 340 337 332 324 314 301 287 275 267 263 262 262 261 260 259 259 258 257 254 250 248 249 251 250 248 246 246 245 245 245 243 242 243 244 244 244 244 243 242 242 243 245 247 248 248 247 248 247 244 239 233 228 223 219 218
3 358 350 343 338 337 338 340 338 334 329 326 323 318 307 290 272 262 259 260 262 261 260 258 256 254 250 246 244 246 247 248 246 244 243 243 244 243 241 240 242 242 242 242 241 240 240 240 241 244 246 248 248 247 246 244 243 241 236 231 225 219 217
1 0 356 349 344 338 334 334 337 336 332 328 327 327 325 310 283 264 257 258 260 260 259 257 253 250 247 244 242 243 245 244 243 241 241 242 242 241 239 240 242 242 242 243 242 241 240 241 242 245 248 249 249 247 244 242 241 241 238 234 229 222 218
354 356 357 356 353 348 341 335 335 337 337 334 330 331 335 329 302 269 256 257 260 260 258 255 251 248 245 243 242 243 243 242 239 238 239 240 239 238 239 241 243 243 244 245 244 243 243 243 244 246 249 251 251 248 245 241 239 239 237 235 233 227 221
343 346 349 352 353 353 350 344 339 339 341 339 335 334 340 344 332 291 262 259 261 261 260 256 252 249 245 243 243 243 242 240 238 236 237 237 236 236 239 241 242 244 246 247 247 247 246 246 247 249 249 250 250 247 245 242 239 238 235 233 233 231 225
334 336 339 342 345 348 350 348 345 343 344 342 339 337 340 349 354 339 293 270 267 266 265 262 257 252 248 245 243 243 241 239 237 236 235 236 236 238 240 241 242 244 246 247 248 248 248 248 248 249 249 249 247 245 244 243 241 240 238 235 233 232 229
328 329 330 332 336 339 343 345 344 344 345 343 340 338 340 347 357 2 356 318 284 274 271 269 264 257 251 247 245 244 243 241 239 237 236 237 238 240 241 242 244 244 245 246 247 247 247 246 246 247 248 247 246 245 243 242 241 239 238 238 236 234 232
319 321 323 324 326 329 332 336 338 339 340 341 338 336 339 346 353 0 8 8 356 318 282 267 262 258 253 250 248 247 246 246 244 242 241 241 241 242 243 244 245 245 245 246 247 246 245 244 244 244 245 244 244 243 242 241 240 237 236 236 237 237 235
310 312 315 316 317 318 321 325 328 329 330 332 332 329 330 339 347 354 358 357 353 345 328 300 276 265 258 253 251 249 247 247 247 245 244 243 243 244 244 245 245 245 245 245 244 243 242 241 241 242 242 242 241 241 241 241 239 237 236 235 235 237 238
304 305 306 307 308 309 311 313 317 319 318 318 320 318 314 315 320 328 335 335 331 326 318 308 297 287 276 267 260 256 252 250 249 247 246 246 246 246 247 247 246 246 245 243 242 241 239 239 239 240 241 240 239 238 238 239 238 237 236 235 235 236 238
302 302 303 303 302 303 303 304 305 307 305 302 303 305 301 298 299 301 304 306 307 306 301 296 297 297 293 286 278 269 261 255 252 250 248 248 248 248 248 248 249 248 247 245 244 242 241 241 242 242 242 241 240 238 237 238 238 239 238 237 236 236 237
303 303 303 303 301 299 299 297 297 297 293 286 284 288 290 289 288 289 290 289 289 291 289 287 288 290 292 293 291 284 274 264 256 253 249 247 247 247 247 247 248 248 246 244 244 244 244 244 244 244 244 244 243 242 241 240 239 240 239 239 238 237 237
305 305 304 303 302 300 298 296 293 291 285 273 266 271 277 279 280 281 281 282 280 280 279 278 279 279 282 288 293 290 281 271 263 259 255 252 249 248 247 247 248 248 246 244 244 245 245 244 243 243 244 245 246 246 245 245 243 242 242 241 240 239 239
304 304 302 301 300 300 300 297 293 289 281 266 256 258 264 269 273 274 274 276 276 274 273 273 272 272 274 283 293 292 284 273 265 261 260 259 256 254 252 250 250 250 250 249 248 248 247 245 242 243 244 245 246 247 247 247 246 245 244 244 243 242 241
303 303 302 301 300 301 302 299 293 287 279 265 252 251 256 262 266 269 272 274 276 274 272 269 267 267 270 278 288 290 285 277 270 263 259 259 259 258 257 255 252 252 252 252 252 252 252 250 247 246 247 247 247 247 247 247 246 246 245 245 244 243 242
301 303 304 303 302 302 301 297 290 283 280 270 255 250 253 257 261 265 269 273 276 276 274 269 264 263 266 273 281 286 287 285 281 274 265 259 258 257 257 256 254 252 251 251 252 252 252 253 251 250 249 250 249 249 248 248 247 246 245 244 243 242 242
298 300 301 302 301 300 297 291 284 280 280 276 263 253 253 256 258 262 266 270 275 276 274 270 265 261 261 266 273 279 284 285 286 284 277 268 261 257 256 255 254 253 251 250 250 249 249 251 251 250 250 251 252 252 250 250 249 249 247 245 243 242 241
304 303 303 303 301 297 291 284 281 280 279 276 267 258 255 256 257 258 262 266 271 275 274 269 265 261 259 260 264 270 275 279 282 285 284 278 270 263 259 255 254 254 254 252 251 249 249 249 249 249 248 249 251 253 253 252 252 251 249 247 245 243 242
309 306 304 303 300 295 288 281 278 280 281 278 270 261 257 256 256 256 257 261 266 271 272 267 263 260 258 257 259 263 267 271 275 279 282 281 277 271 264 257 252 251 253 254 253 250 250 250 251 250 249 249 250 253 255 255 253 251 249 248 246 245 244